Rbgn^[z[y[W
メイン
   新天体発見情報
     Comet C/2017 K2 (PANSTARRS)
投稿するにはまず登録を

スレッド表示 | 新しいものから 前のトピック | 次のトピック | 下へ
投稿者 スレッド
佐藤裕久
投稿日時: 2017-6-4 22:31
モデレータ
登録日: 2005-6-12
居住地: 日本
投稿: 2505
オンライン
Comet C/2017 K2 (PANSTARRS)

R. J. Wainscoatの通報によると、5月21日、Haleakalaにある1.8-m Pan-STARRS1望遠鏡で得た4枚の45秒
w-バンドCCD画像から別の彗星を発見した。
この天体は明らかにソフトで、半値全幅(FWHM)は1".5で比較した隣接する恒星は0".9であった。
5月22.6日UT、WainscoatとL. Wellsが、Mauna Keaにある3.6-m Canada-France-Hawaii Telescope
で得た6枚の60秒gri-フィルター確認露出では、この天体は明らかに彗星状で、コマのFWHMは0".75のシー
イング状況で約1".3で、このコマは西に細長く、G-バンドによる光度は19.7等であった。
小惑星センターのPCCP webpageに公表後、佐藤英貴氏(東京都文京区, iTelescope Sierra Remote天文台,
0.61-m f/6.5 アストログラフ, Auberry, カリフォルニア州, 遠隔操作:5月22.45-22.46日UT, 12枚の60
秒露出のスタックで適度に集光した丸い12"のコマを見つけたが尾はなかった。6".3の円形範囲で測定した
この彗星のw-バンド光度は18.9等であった)は彗星状と観測した。

発見位置は次のとおり、

     2017 UT             R.A. (2000) Decl.       Mag.
     May  21.49169   17 52 21.39   +64 30 27.8   20.8
          21.50472   17 52 20.96   +64 30 29.1   21.1
          21.51771   17 52 20.60   +64 30 29.9   20.8
          21.53069   17 52 20.16   +64 30 31.2   21.0

暫定放物線軌道要素と位置推算表は次のとおり、

Orbital elements:
    C/2017 K2 (PANSTARRS)
T 2027 Jan. 5.20992 TT                                  MPCW
q   9.8958794            (2000.0)            P               Q
                   Peri.  183.64465     -0.99645422     +0.05883901
                   Node     3.45810     -0.02555593     +0.46936863
e   1.0            Incl.   94.39544     -0.08016156     -0.88103976
From 14 observations 2017 May 21-24.

Ephemeris:
    C/2017 K2 (PANSTARRS)
Date    TT    R. A. (2000) Decl.     Delta      r     Elong.  Phase   m1
2017 04 24    18 03 44.1 +63 36 51  20.2505 20.2981    91.3     2.8  19.6
...
2017 05 09    17 58 06.3 +64 09 51  20.1810 20.2402    91.9     2.9  19.6
...
2017 05 17    17 54 31.2 +64 23 52  20.1465 20.2092    92.1     2.9  19.6
...
2017 05 23    17 51 36.5 +64 32 28  20.1219 20.1860    92.2     2.9  19.6
2017 05 24    17 51 06.5 +64 33 43  20.1179 20.1822    92.2     2.9  19.6
2017 05 25    17 50 36.1 +64 34 56  20.1139 20.1783    92.2     2.9  19.6
...
2017 05 31    17 47 29.3 +64 41 05  20.0908 20.1551    92.2     2.9  19.6
...
2017 06 08    17 43 10.3 +64 46 16  20.0617 20.1242    92.1     2.9  19.5
...
2017 06 23    17 34 51.8 +64 46 20  20.0123 20.0662    91.6     2.9  19.5

(CBET 4393、MPEC 2017-K35)


楕円軌道要素と位置推算表は次のとおり、

Orbital elements:
    C/2017 K2 (PANSTARRS)
Epoch 2023 Oct. 23.0 TT = JDT 2460240.5
T 2023 Oct. 8.10626 TT                                  MPCW
q   1.6906489            (2000.0)            P               Q
n   0.00787509     Peri.  244.29696     -0.00057267     +0.08724510
a  25.0206679      Node    85.47691     -0.04095249     +0.99534912
e   0.9324299      Incl.   87.85438     -0.99916093     -0.04084626
P 125
From 50 observations 2017 May 21-30, mean residual 0".3.

    C/2017 K2 (PANSTARRS)
Epoch 2130 Sept. 12.0 TT = JDT 2499280.5
T 2130 Sept. 18.08755 TT                                MPCW
q   1.6877315            (2000.0)            P               Q
n   0.00912066     Peri.  243.93612     -0.01229688     +0.08147578
a  22.6874316      Node    85.49230     -0.04626318     +0.99556114
e   0.9256094      Incl.   88.57727     -0.99885360     -0.04711373
P 108
From 50 observations 2017 May 21-30, mean residual 0".3.

    C/2017 K2 (PANSTARRS)
Epoch 2017 Sept. 4.0 TT = JDT 2458000.5
T 2023 Oct. 10.56162 TT                                 MPCW
q   1.7067929            (2000.0)            P               Q
n   0.00791325     Peri.  244.11043     -0.00019165     +0.08742275
a  24.9401775      Node    85.48429     -0.04424603     +0.99519498
e   0.9315645      Incl.   87.81547     -0.99902065     -0.04409337
P 125
From 50 observations 2017 May 21-30, mean residual 0".3.

Ephemeris:
    C/2017 K2 (PANSTARRS)
Date    TT    R. A. (2000) Decl.     Delta      r     Elong.  Phase   m1
2017 04 30    18 01 22.0 +63 48 31  16.2467 16.3066    91.6     3.5  19.7
...
2017 05 15    17 55 25.1 +64 20 19  16.1699 16.2382    92.1     3.6  19.6
...
2017 05 23    17 51 36.6 +64 32 28  16.1312 16.2016    92.2     3.6  19.6
...
2017 05 29    17 48 31.4 +64 39 03  16.1033 16.1741    92.2     3.6  19.6
2017 05 30    17 47 59.6 +64 39 55  16.0987 16.1696    92.2     3.6  19.6
2017 05 31    17 47 27.6 +64 40 44  16.0942 16.1650    92.2     3.6  19.6
...
2017 06 06    17 44 11.3 +64 44 11  16.0676 16.1374    92.1     3.6  19.6
...
2017 06 14    17 39 42.0 +64 45 01  16.0336 16.1007    92.0     3.6  19.6
...
2017 06 29    17 31 16.5 +64 34 35  15.9744 16.0317    91.4     3.6  19.6

(MPEC 2017-K90)

スレッド表示 | 新しいものから 前のトピック | 次のトピック | トップ

投稿するにはまず登録を
 
© 1999 Tsutomu Seki.